This demonstration page uses our WeatherBlox Daily Observations layout. Learn more.

Left ArrowRight Arrow

Hourly Observations for February 4, 2023

Temp ( °F °C ) Dew Point ( °F °C ) Humidity (%) Winds ( mph kmh ) Pressure ( in mb ) Visibility ( mi km ) Precip ( " mm )
12:15 am 00:15 Clear 18 -8 1 -17 48 48 N 10 17 30.60 1036 10 16 0.00 0.00
12:35 am 00:35 Clear 18 -8 3 -16 52 52 N 12 19 30.59 1036 10 16 0.00 0.00
12:55 am 00:55 Clear 18 -8 3 -16 52 52 NNW 13 20 30.59 1036 10 16 0.00 0.00
1:15 am 01:15 Clear 18 -8 3 -16 52 52 N 12 19 30.60 1036 10 16 0.00 0.00
1:35 am 01:35 Clear 18 -8 3 -16 52 52 N 8 13 30.61 1036 10 16 0.00 0.00
1:55 am 01:55 Clear 16 -9 3 -16 57 57 NNW 12 19 30.61 1036 10 16 0.00 0.00
2:15 am 02:15 Clear 16 -9 3 -16 57 57 NNW 5 7 30.63 1037 10 16 0.00 0.00
2:35 am 02:35 Clear 16 -9 3 -16 57 57 NW 16 26 30.63 1037 10 16 0.00 0.00
2:55 am 02:55 Clear 16 -9 3 -16 57 57 NW 8 13 30.64 1037 10 16 0.00 0.00
3:15 am 03:15 Clear 14 -10 3 -16 61 61 NW 6 9 30.63 1037 10 16 0.00 0.00
3:35 am 03:35 Clear 14 -10 3 -16 61 61 NW 9 15 30.64 1038 10 16 0.00 0.00
3:55 am 03:55 Clear 14 -10 3 -16 61 61 WNW 8 13 30.65 1038 10 16 0.00 0.00
4:15 am 04:15 Clear 14 -10 3 -16 61 61 WNW 9 15 30.65 1038 10 16 0.00 0.00
4:35 am 04:35 Clear 14 -10 3 -16 61 61 W 5 7 30.67 1039 10 16 0.00 0.00
4:55 am 04:55 Clear 14 -10 3 -16 61 61 W 5 7 30.67 1039 10 16 0.00 0.00
5:15 am 05:15 Clear 14 -10 3 -16 61 61 WNW 9 15 30.67 1039 10 16 0.00 0.00
5:35 am 05:35 Clear 14 -10 5 -15 67 67 WNW 12 19 30.68 1039 10 16 0.00 0.00
5:55 am 05:55 Clear 14 -10 3 -16 61 61 W 7 11 30.69 1039 10 16 0.00 0.00
6:15 am 06:15 Clear 14 -10 3 -16 61 61 W 5 7 30.70 1040 10 16 0.00 0.00
6:35 am 06:35 Clear 14 -10 3 -16 61 61 WNW 8 13 30.70 1040 10 16 0.00 0.00
6:55 am 06:55 Clear 14 -10 3 -16 61 61 Calm 30.70 1040 10 16 0.00 0.00
7:15 am 07:15 Sunny 14 -10 3 -16 61 61 Calm 30.70 1040 10 16 0.00 0.00
7:35 am 07:35 Sunny 14 -10 3 -16 61 61 SSW 6 9 30.70 1040 10 16 0.00 0.00
7:55 am 07:55 Sunny 16 -9 3 -16 57 57 WSW 3 6 30.70 1040 10 16 0.00 0.00
8:15 am 08:15 Sunny 18 -8 5 -15 57 57 SSW 3 6 30.70 1040 10 16 0.00 0.00
8:35 am 08:35 Sunny 18 -8 5 -15 57 57 Calm 30.71 1040 10 16 0.00 0.00
8:55 am 08:55 Sunny 19 -7 3 -16 48 48 Calm 30.71 1040 10 16 0.00 0.00
9:15 am 09:15 Sunny 19 -7 3 -16 48 48 Calm 30.71 1040 10 16 0.00 0.00
9:35 am 09:35 Sunny 19 -7 1 -17 45 45 Calm 30.70 1040 10 16 0.00 0.00
9:55 am 09:55 Sunny 21 -6 3 -16 45 45 Calm 30.69 1039 10 16 0.00 0.00
10:15 am 10:15 Sunny 21 -6 3 -16 45 45 Calm 30.69 1039 10 16 0.00 0.00
10:35 am 10:35 Sunny 23 -5 1 -17 38 38 Calm 30.68 1039 10 16 0.00 0.00
10:55 am 10:55 Sunny 25 -4 3 -16 39 39 Calm 30.67 1039 10 16 0.00 0.00
11:35 am 11:35 Sunny 27 -3 3 -16 36 36 SSW 6 9 30.66 1038 10 16 0.00 0.00
11:55 am 11:55 Sunny 28 -2 3 -16 33 33 S 8 13 30.64 1037 10 16 0.00 0.00
12:15 pm 12:15 Sunny 27 -3 3 -16 36 36 SSE 10 17 30.62 1037 10 16 0.00 0.00
12:35 pm 12:35 Sunny 28 -2 3 -16 33 33 SSE 10 17 30.60 1036 10 16 0.00 0.00
12:55 pm 12:55 Sunny 30 -1 3 -16 31 31 S 12 19 30.59 1036 10 16 0.00 0.00
1:15 pm 13:15 Sunny 30 -1 3 -16 31 31 S 12 19 30.56 1035 10 16 0.00 0.00
1:35 pm 13:35 Sunny 30 -1 5 -15 34 34 SSW 10 17 30.55 1035 10 16 0.00 0.00
1:55 pm 13:55 Sunny 32 0 5 -15 31 31 S 14 22 30.54 1034 10 16 0.00 0.00
2:15 pm 14:15 Sunny 32 0 5 -15 31 31 S 14 22 30.53 1034 10 16 0.00 0.00
2:35 pm 14:35 Sunny 32 0 7 -14 34 34 S 15 24 30.52 1034 10 16 0.00 0.00
2:55 pm 14:55 Sunny 32 0 7 -14 34 34 WSW 10 17 30.51 1033 10 16 0.00 0.00
3:15 pm 15:15 Sunny 32 0 9 -13 37 37 SSW 13 20 30.51 1033 10 16 0.00 0.00
3:35 pm 15:35 Sunny 32 0 9 -13 37 37 SSW 15 24 30.50 1033 10 16 0.00 0.00
3:55 pm 15:55 Sunny 32 0 9 -13 37 37 S 15 24 30.49 1033 10 16 0.00 0.00
4:15 pm 16:15 Sunny 32 0 9 -13 37 37 SSW 14 22 30.49 1033 10 16 0.00 0.00
4:35 pm 16:35 Sunny 32 0 9 -13 37 37 SSW 12 19 30.48 1032 10 16 0.00 0.00
4:55 pm 16:55 Sunny 32 0 9 -13 37 37 SSW 14 22 30.48 1032 10 16 0.00 0.00
5:15 pm 17:15 Sunny 32 0 9 -13 37 37 SSW 13 20 30.48 1032 10 16 0.00 0.00
5:35 pm 17:35 Clear 32 0 9 -13 37 37 S 7 11 30.48 1032 10 16 0.00 0.00
5:55 pm 17:55 Clear 32 0 9 -13 37 37 S 8 13 30.48 1032 10 16 0.00 0.00
6:15 pm 18:15 Clear 30 -1 9 -13 40 40 S 9 15 30.48 1032 10 16 0.00 0.00
6:35 pm 18:35 Clear 30 -1 9 -13 40 40 S 9 15 30.47 1032 10 16 0.00 0.00
6:55 pm 18:55 Clear 30 -1 9 -13 40 40 S 9 15 30.47 1032 10 16 0.00 0.00
7:15 pm 19:15 Clear 30 -1 9 -13 40 40 S 9 15 30.46 1032 10 16 0.00 0.00
7:35 pm 19:35 Clear 30 -1 9 -13 40 40 S 10 17 30.46 1031 10 16 0.00 0.00
7:55 pm 19:55 Clear 30 -1 10 -12 43 43 S 7 11 30.44 1031 10 16 0.00 0.00
8:15 pm 20:15 Clear 30 -1 10 -12 43 43 S 9 15 30.43 1031 10 16 0.00 0.00
8:35 pm 20:35 Clear 30 -1 10 -12 43 43 S 7 11 30.42 1030 10 16 0.00 0.00
8:55 pm 20:55 Clear 30 -1 10 -12 43 43 S 8 13 30.42 1030 10 16 0.00 0.00
9:15 pm 21:15 Clear 30 -1 10 -12 43 43 S 9 15 30.41 1030 10 16 0.00 0.00
9:35 pm 21:35 Clear 30 -1 10 -12 43 43 S 9 15 30.40 1030 10 16 0.00 0.00
9:55 pm 21:55 Clear 30 -1 10 -12 43 43 S 7 11 30.40 1030 10 16 0.00 0.00
10:15 pm 22:15 Clear 30 -1 10 -12 43 43 S 8 13 30.40 1030 10 16 0.00 0.00
10:35 pm 22:35 Clear 30 -1 12 -11 46 46 S 8 13 30.39 1029 10 16 0.00 0.00
10:55 pm 22:55 Clear 30 -1 12 -11 46 46 S 8 13 30.39 1029 10 16 0.00 0.00
11:15 pm 23:15 Clear 30 -1 12 -11 46 46 S 9 15 30.38 1029 10 16 0.00 0.00
11:35 pm 23:35 Clear 30 -1 12 -11 46 46 S 7 11 30.38 1029 10 16 0.00 0.00
11:55 pm 23:55 Clear 30 -1 12 -11 46 46 S 7 11 30.38 1029 10 16 0.00 0.00

Powered by AerisWeather